TimeHST,TemperatureF,Dew PointF,Humidity,Sea Level PressureIn,VisibilityMPH,Wind Direction,Wind SpeedMPH,Gust SpeedMPH,PrecipitationIn,Events,Conditions,WindDirDegrees,DateUTC
12:56 AM,70.0,64.9,84,30.04,10.0,NE,3.5,-,N/A,,Clear,50,2013-09-09 10:56:00
1:56 AM,70.0,66.9,90,30.02,10.0,NE,6.9,-,N/A,,Clear,40,2013-09-09 11:56:00
2:56 AM,68.0,64.9,90,30.02,10.0,ENE,5.8,-,N/A,,Clear,60,2013-09-09 12:56:00
3:56 AM,66.9,63.9,90,30.01,10.0,ENE,5.8,-,N/A,,Clear,70,2013-09-09 13:56:00
4:56 AM,65.8,63.9,93,30.02,10.0,NNE,8.1,-,N/A,,Clear,30,2013-09-09 14:56:00
5:56 AM,68.9,65.8,90,30.02,10.0,NE,9.2,-,N/A,,Clear,50,2013-09-09 15:56:00
6:56 AM,68.0,63.9,87,30.04,10.0,East,6.9,-,N/A,,Clear,90,2013-09-09 16:56:00
7:56 AM,75.9,64.9,69,30.04,10.0,ENE,6.9,-,N/A,,Clear,70,2013-09-09 17:56:00
8:56 AM,81.0,63.9,56,30.04,10.0,NE,3.5,-,N/A,,Clear,50,2013-09-09 18:56:00
9:56 AM,79.9,65.8,62,30.05,10.0,WSW,6.9,-,N/A,,Mostly Cloudy,240,2013-09-09 19:56:00
10:07 AM,78.8,64.4,61,30.11,10.0,Variable,4.6,-,N/A,,Overcast,0,2013-09-09 20:07:00
10:43 AM,80.6,64.4,58,30.11,10.0,West,6.9,-,N/A,,Overcast,280,2013-09-09 20:43:00
10:56 AM,79.0,63.9,60,30.05,10.0,SW,4.6,-,N/A,,Overcast,230,2013-09-09 20:56:00
11:56 AM,81.0,63.9,56,30.03,10.0,Variable,5.8,-,N/A,,Mostly Cloudy,0,2013-09-09 21:56:00
12:56 PM,84.9,63.9,49,30.01,10.0,WSW,9.2,-,N/A,,Scattered Clouds,240,2013-09-09 22:56:00
1:56 PM,82.4,64.4,54,30.07,10.0,West,8.1,-,N/A,,Overcast,280,2013-09-09 23:56:00
2:03 PM,80.6,64.4,58,30.07,10.0,NW,6.9,-,N/A,,Overcast,310,2013-09-10 00:03:00
2:41 PM,80.6,64.4,58,30.07,10.0,WNW,5.8,-,N/A,,Overcast,290,2013-09-10 00:41:00
2:56 PM,81.0,63.9,56,30.00,10.0,NE,11.5,-,N/A,,Mostly Cloudy,50,2013-09-10 00:56:00
3:56 PM,83.8,64.9,53,29.99,10.0,NNE,16.1,-,N/A,,Partly Cloudy,30,2013-09-10 01:56:00
4:56 PM,81.0,65.8,60,30.00,10.0,NE,19.6,-,N/A,,Clear,40,2013-09-10 02:56:00
5:56 PM,77.9,64.9,64,30.01,10.0,NE,18.4,21.9,N/A,,Clear,40,2013-09-10 03:56:00
6:56 PM,73.9,65.8,76,30.05,10.0,NE,12.7,23.0,N/A,,Clear,50,2013-09-10 04:56:00
7:56 PM,73.4,66.2,78,30.12,-9999.0,NE,10.4,-,N/A,,Clear,50,2013-09-10 05:56:00
8:56 PM,72.0,65.8,81,30.06,10.0,NE,13.8,-,N/A,,Clear,40,2013-09-10 06:56:00
9:56 PM,72.9,66.9,82,30.07,10.0,NE,17.3,-,N/A,,Clear,50,2013-09-10 07:56:00
10:56 PM,72.0,64.9,78,30.07,10.0,ENE,11.5,-,0.00,,Clear,60,2013-09-10 08:56:00
11:56 PM,72.0,63.9,76,30.06,10.0,ENE,15.0,-,N/A,,Clear,60,2013-09-10 09:56:00